Weather History for MMHO - June, 2013

Change the Weather History Date:

Friday, June 21, 2013

  Actual Average Record
Temperature  
Mean Temperature 94 °F -  
Max Temperature 111 °F 100 °F 111 °F (2007)
Min Temperature 77 °F 76 °F 66 °F (2001)
Cooling Degree Days 29    
Growing Degree Days 44 (Base 50)    
Moisture  
Dew Point 58 °F    
Average Humidity 34    
Maximum Humidity 65    
Minimum Humidity 10    
Precipitation  
Precipitation 0.00 in - - ()
Sea Level Pressure  
Sea Level Pressure 29.80 in    
Wind  
Wind Speed 4 mph ()    
Max Wind Speed 14 mph    
Max Gust Speed 25 mph    
Visibility 9.8 miles    
Events      
Averages and records for this station are not official NWS values.
T = Trace of Precipitation, MM = Missing Value Source: Averaged Metar Reports

Daily Weather History Graph

Daily Weather History Graph

Search for Another Location

Airport or City:

Trip Planner

Search our weather history database for the weather conditions in past years. The results will help you decide how hot, cold, wet, or windy it might be!

Date:

Astronomy

Jun. 21, 2013 Rise Set
Actual Time 6:25 AM MDT 8:26 PM MDT
Civil Twilight 5:58 AM MDT 8:53 PM MDT
Nautical Twilight 5:25 AM MDT 9:26 PM MDT
Astronomical Twilight 4:50 AM MDT 10:01 PM MDT
Moon 6:45 PM MDT (6/21) 4:38 AM MDT (6/21)
Length of Visible Light 14h 54m
Length of Day
14h 00m
Waxing Gibbous, 95% of the Moon is Illuminated
Jun 21
Waxing Gibbous
Jun 23
Full
Jun 29
Last Quarter
Jul 8
New
Jul 15
First Quarter

Hourly Weather History & Observations

Time (MDT) Temp. Heat Index Dew Point Humidity Pressure Visibility Wind Dir Wind Speed Gust Speed Precip Events Conditions
12:43 AM 82.4 °F 84.6 °F 66.2 °F 58% 29.83 in 10.0 mi Calm Calm - N/A   Clear
1:48 AM 80.6 °F 82.3 °F 64.4 °F 58% 29.82 in 10.0 mi Calm Calm - N/A   Clear
2:41 AM 77.0 °F - 64.4 °F 65% 29.77 in 10.0 mi Calm Calm - N/A   Clear
3:45 AM 77.0 °F - 62.6 °F 61% 29.83 in 10.0 mi Calm Calm - N/A   Clear
5:18 AM 80.6 °F 81.8 °F 62.6 °F 54% 29.83 in 10.0 mi Calm Calm - N/A   Clear
5:50 AM 78.8 °F - 62.6 °F 57% 29.80 in 10.0 mi Calm Calm - N/A   Clear
6:47 AM 82.4 °F 82.0 °F 57.2 °F 42% 29.84 in 10.0 mi East 4.6 mph - N/A   Clear
7:40 AM 84.2 °F 83.5 °F 57.2 °F 40% 29.86 in 10.0 mi East 4.6 mph - N/A   Clear
8:40 AM 87.8 °F 87.1 °F 59.0 °F 38% 29.85 in 10.0 mi East 9.2 mph - N/A   Clear
9:53 AM 91.4 °F 91.4 °F 60.8 °F 36% 29.89 in 10.0 mi East 9.2 mph - N/A   Clear
10:53 AM 96.8 °F 95.1 °F 55.4 °F 25% 29.89 in 10.0 mi SE 5.8 mph - N/A   Clear
11:46 AM 100.4 °F 98.4 °F 53.6 °F 21% 29.82 in 10.0 mi SSE 5.8 mph - N/A   Clear
12:46 PM 102.2 °F - 50.0 °F 17% 29.86 in 10.0 mi SSE 8.1 mph - N/A   Clear
1:49 PM 104.0 °F - 46.4 °F 14% 29.84 in 10.0 mi South 8.1 mph - N/A   Clear
2:34 PM 108 °F - 54 °F 10% 29.75 in 7 mi SSW 2.2 mph - -  
2:45 PM 105.8 °F - 48.2 °F 14% 29.75 in 10.0 mi SSW 8.1 mph - N/A   Clear
3:43 PM 107.6 °F - 46.4 °F 13% 29.79 in 10.0 mi SW 10.4 mph - N/A   Clear
4:42 PM 107.6 °F 107.5 °F 57.2 °F 19% 29.77 in 10.0 mi SSW 13.8 mph - N/A   Clear
5:32 PM 108 °F - 64 °F 16% 29.70 in 7 mi SW 2.2 mph - -  
5:42 PM 105.8 °F 106.8 °F 59.0 °F 22% 29.74 in 10.0 mi SW 13.8 mph 25.3 mph N/A   Clear
6:49 PM 102.2 °F 100.9 °F 55.4 °F 21% 29.76 in 10.0 mi SW 11.5 mph - N/A   Clear
7:47 PM 98.6 °F 97.2 °F 55.4 °F 24% 29.76 in 10.0 mi SSW 12.7 mph - N/A   Mostly Cloudy
8:41 PM 95.0 °F 93.0 °F 55.4 °F 26% 29.74 in 10.0 mi SW 10.4 mph - N/A   Mostly Cloudy
9:45 PM 91.4 °F 92.1 °F 62.6 °F 38% 29.78 in 10.0 mi SW 8.1 mph - N/A   Scattered Clouds
10:43 PM 87.8 °F 89.4 °F 64.4 °F 46% 29.81 in 10.0 mi SSW 5.8 mph - N/A   Scattered Clouds
11:59 PM 84.2 °F 86.6 °F 66.2 °F 55% 29.77 in 10.0 mi South 5.8 mph - N/A   Scattered Clouds